CZ-4C DEB, 40114

Orbit data source: Space-Track

CZ-4C DEB, 40114 is space debris in LEO originally from a launch on Sat, 09 Aug 2014 UTC launched from the Jiuquan Satellite Launch Center, China (JSC). Debris objects in space refer to the collection of defunct objects orbiting the Earth. Examples of debris include non-operational satellites, rocket bodies, and fragments generated from explosions, collisions, or faulty payload assembly.

Loading next visibility...
Identifier
40114, 2014-047F
Orbit
LEO
Last TLE update
13 hours ago
Origin
Manufacturer
CAST
Mission
Spacecraft
Bus & Motor
Unknown
Mass
Unknown
Launch date (UTC)
2014-08-09 (11 years ago)
Launch vehicle
Unknown
Launch site
Jiuquan Satellite Launch Center, China (JSC)
Object type
Payload
Rocket body
Debris
Shape & HBR
Unknown
Radar Cross Section
6.100 m², Large (>1 m²)

Expand to show TLE details & history

TLE from 13 hours ago
0 CZ-4C DEB
1 40114U 14047F   25128.72538363  .00000105  00000-0  22911-3 0  9995
2 40114  63.3857   7.6391 0355647  13.1510 347.8496 13.44320042527492
Epoch: 2025-05-08T17:24Z
Definitive object data (Epoch: 2025-05-08T17:24:33.145Z)
Latitude
0.00002°
Longitude
-120.29075°
Altitude
835.648 km
Speed
7.563 km/s
True Right ascension
00h 30m 33s
True Declination
0° 00' 00"
Sunlit
Object was in daylight at TLE epoch
Visualization TLE readout
Latitude
51.28385°
Longitude
19.85391°
Altitude
1,165.874 km
Speed
7.244 km/s
Apparent Right ascension
06h 08m 30s
Apparent Declination
17° 39' 53"
Sunlit
Object is in daylight
Visualization observer readout
Local Sidereal Time
14:37:16
Azimuth
308.43° NW
Elevation
-14.301°
Doppler factor
1
Orbital elements
Apogee altitude
1,357.735 km
Perigee altitude
826.384 km
Semi-major axis
7,470.196 km
Eccentricity
0.0355647
Inclination
63.3857°
RAAN
7.6391°
Arg. of periapsis
13.151°
True anomaly
346.95295°
Mean anomaly
347.8496°
Eccentric anomaly
347.40527°
Mean motion
3.36159 °/min
BSTAR
0.00022911
Orbital period
107.09 mins
Loading maneuver chart data...
Loading SW <> Apogee altitude chart data...
Loading historical data...
Loading historical data...
Loading historical data...
Loading historical data...
Loading historical data...
Loading historical data...
Loading historical data...

CZ-4C DEB Visibility forecast

Observer location: undefined°, undefined°

Span
Click to sort rows by Start time (UTC) header in descending order
Start Az.
Max El. time (UTC)
Max El. Az.
Max El.
End time (UTC)
End Az.
8 mins2025-05-09 16:44:25.627Z167.026° S2025-05-09 16:48:25.627Z109.761° ESE27.068°2025-05-09 16:52:25.627Z57.86° ENE
9 mins2025-05-09 18:34:25.627Z248.345° W2025-05-09 18:38:25.627Z308.277° NW33.215°2025-05-09 18:43:25.627Z19.191° NNE
9 mins2025-05-10 00:15:25.627Z358.997° N2025-05-10 00:19:25.627Z40.141° NE19.735°2025-05-10 00:24:25.627Z81.817° E
13 mins2025-05-10 02:05:25.627Z331.14° NNW2025-05-10 02:10:25.627Z31.34° NE43.979°2025-05-10 02:18:25.627Z140.694° SSE
10 mins2025-05-10 03:56:25.627Z292.778° NW2025-05-10 04:01:25.627Z245.012° WSW22.026°2025-05-10 04:06:25.627Z204.167° SW
|